GW3869 Weather Reports


Display with metric or nautical units.
time (UTC)temp
F
wind
direction
speed
MPH
gust
MPH
rain 1hr
in
rain 24hr
in
rain mn
in
humidity
%
barometer
mb
20260508230843 67 180 6.0 7.0 0.00 0.00 0.00 42 1008.0
20260508230339 67 176 5.0 9.0 0.00 0.00 0.00 42 1008.2
20260508225837 67 177 5.0 7.0 0.00 0.00 0.00 43 1008.0
20260508225334 67 174 5.0 7.0 0.00 0.00 0.00 43 1007.8
20260508224832 67 178 6.0 7.0 0.00 0.00 0.00 43 1008.0
20260508224329 67 177 6.0 6.0 0.00 0.00 0.00 43 1007.8
20260508223826 68 178 5.0 7.0 0.00 0.00 0.00 42 1007.9
20260508223323 67 174 5.0 9.0 0.00 0.00 0.00 42 1007.7
20260508222821 68 166 5.0 7.0 0.00 0.00 0.00 43 1007.9
20260508222318 68 174 6.0 7.0 0.00 0.00 0.00 40 1007.7
20260508221815 68 176 5.0 9.0 0.00 0.00 0.00 39 1007.9
20260508221310 69 176 6.0 10.0 0.00 0.00 0.00 40 1007.6
20260508220807 69 163 6.0 10.0 0.00 0.00 0.00 40 1007.6
20260508220303 68 176 5.0 9.0 0.00 0.00 0.00 39 1007.7
20260508215800 68 177 8.0 9.0 0.00 0.00 0.00 39 1007.5
20260508215256 68 181 8.0 11.0 0.00 0.00 0.00 39 1007.4
20260508214754 69 190 8.0 11.0 0.00 0.00 0.00 39 1007.8
20260508214250 69 184 7.0 9.0 0.00 0.00 0.00 38 1007.9
20260508213747 70 177 5.0 9.0 0.00 0.00 0.00 38 1007.9
20260508213244 71 180 8.0 10.0 0.00 0.00 0.00 39 1007.8
20260508212735 70 204 9.0 12.0 0.00 0.00 0.00 37 1007.7
20260508212232 70 184 7.0 13.0 0.00 0.00 0.00 39 1008.1
20260508211727 69 197 7.0 11.0 0.00 0.00 0.00 39 1007.8
20260508211223 69 190 9.0 10.0 0.00 0.00 0.00 40 1008.2
20260508210721 69 180 7.0 12.0 0.00 0.00 0.00 39 1008.2
20260508210218 69 188 8.0 10.0 0.00 0.00 0.00 38 1008.1
20260508205715 70 182 6.0 10.0 0.00 0.00 0.00 39 1008.1
20260508205211 71 184 7.0 12.0 0.00 0.00 0.00 37 1008.3
20260508204707 70 205 10.0 12.0 0.00 0.00 0.00 37 1008.4
20260508204204 71 178 5.0 12.0 0.00 0.00 0.00 38 1008.3
20260508203700 70 157 3.0 9.0 0.00 0.00 0.00 37 1008.5
20260508203156 69 187 6.0 11.0 0.00 0.00 0.00 39 1008.7
20260508202652 69 185 10.0 11.0 0.00 0.00 0.00 38 1008.8
20260508202150 69 162 7.0 9.0 0.00 0.00 0.00 39 1008.7
20260508201646 70 193 8.0 8.0 0.00 0.00 0.00 37 1009.0
20260508201143 69 176 9.0 10.0 0.00 0.00 0.00 39 1009.1
20260508200640 69 191 5.0 9.0 0.00 0.00 0.00 40 1009.0
20260508200136 70 193 7.0 10.0 0.00 0.00 0.00 40 1009.3
20260508195632 70 181 7.0 9.0 0.00 0.00 0.00 37 1009.3
20260508195128 71 177 6.0 9.0 0.00 0.00 0.00 36 1009.2
20260508194625 71 190 8.0 10.0 0.00 0.00 0.00 36 1009.3
20260508194123 71 189 6.0 9.0 0.00 0.00 0.00 38 1009.5
20260508193620 70 188 5.0 6.0 0.00 0.00 0.00 38 1009.5
20260508193116 71 190 7.0 10.0 0.00 0.00 0.00 37 1009.5
20260508192613 71 184 9.0 11.0 0.00 0.00 0.00 36 1009.5
20260508192110 71 203 5.0 9.0 0.00 0.00 0.00 36 1009.6
20260508191607 71 205 5.0 14.0 0.00 0.00 0.00 37 1009.6
20260508191104 72 195 8.0 9.0 0.00 0.00 0.00 38 1009.5
20260508190601 71 191 7.0 8.0 0.00 0.00 0.00 38 1009.7
20260508190057 71 181 7.0 9.0 0.00 0.00 0.00 33 1009.7
20260508185554 70 183 5.0 11.0 0.00 0.00 0.00 35 1009.9
20260508185052 70 186 6.0 13.0 0.00 0.00 0.00 34 1009.9
20260508184549 71 197 8.0 10.0 0.00 0.00 0.00 37 1009.8
20260508184045 71 191 8.0 11.0 0.00 0.00 0.00 37 1010.0
20260508183541 71 185 7.0 8.0 0.00 0.00 0.00 37 1010.1
20260508183037 70 180 8.0 9.0 0.00 0.00 0.00 38 1010.2
20260508182534 68 195 5.0 11.0 0.00 0.00 0.00 39 1010.3
20260508182031 69 190 6.0 10.0 0.00 0.00 0.00 36 1010.1
20260508181526 70 180 9.0 14.0 0.00 0.00 0.00 38 1010.5
20260508181024 70 200 7.0 11.0 0.00 0.00 0.00 37 1010.5
20260508180520 71 192 6.0 9.0 0.00 0.00 0.00 35 1010.6
20260508180017 71 201 6.0 10.0 0.00 0.00 0.00 37 1010.5
20260508175513 71 201 7.0 9.0 0.00 0.00 0.00 42 1010.9
20260508175011 71 180 5.0 8.0 0.00 0.00 0.00 42 1010.8
20260508174508 71 188 6.0 9.0 0.00 0.00 0.00 40 1010.8
20260508174005 70 196 7.0 7.0 0.00 0.00 0.00 44 1011.1
20260508173502 69 202 7.0 10.0 0.00 0.00 0.00 38 1010.9
20260508172958 70 212 14.0 14.0 0.00 0.00 0.00 36 1011.0
20260508172455 69 156 7.0 11.0 0.00 0.00 0.00 44 1011.0
20260508171951 69 200 7.0 9.0 0.00 0.00 0.00 38 1011.2
20260508171448 69 190 5.0 11.0 0.00 0.00 0.00 39 1011.3
20260508170944 69 152 9.0 11.0 0.00 0.00 0.00 38 1011.7
20260508170442 69 190 6.0 9.0 0.00 0.00 0.00 40 1011.6
20260508165939 69 192 6.0 10.0 0.00 0.00 0.00 37 1011.7
20260508165437 68 165 5.0 9.0 0.00 0.00 0.00 44 1011.9
20260508164932 69 180 6.0 10.0 0.00 0.00 0.00 38 1011.9
20260508164430 67 197 8.0 11.0 0.00 0.00 0.00 44 1012.4
20260508163927 67 193 5.0 8.0 0.00 0.00 0.00 41 1012.1
20260508163425 67 193 9.0 9.0 0.00 0.00 0.00 41 1012.3
20260508162926 68 180 6.0 8.0 0.00 0.00 0.00 40 1012.2
20260508162424 67 200 12.0 12.0 0.00 0.00 0.00 41 1012.4
20260508161920 67 180 4.0 9.0 0.00 0.00 0.00 44 1012.4
20260508161412 67 193 9.0 10.0 0.00 0.00 0.00 45 1012.5
20260508160909 67 188 8.0 9.0 0.00 0.00 0.00 47 1012.5
20260508160408 66 188 4.0 8.0 0.00 0.00 0.00 49 1012.7
20260508155903 66 207 9.0 11.0 0.00 0.00 0.00 42 1012.6
20260508155401 66 194 5.0 9.0 0.00 0.00 0.00 45 1012.7
20260508154857 66 190 5.0 10.0 0.00 0.00 0.00 45 1012.7
20260508154355 66 179 5.0 7.0 0.00 0.00 0.00 47 1012.8
20260508153851 65 151 5.0 6.0 0.00 0.00 0.00 48 1013.2
20260508153349 65 188 5.0 10.0 0.00 0.00 0.00 47 1013.0
20260508152845 64 178 7.0 9.0 0.00 0.00 0.00 45 1013.0
20260508152342 64 196 7.0 10.0 0.00 0.00 0.00 46 1013.2
20260508151838 64 191 6.0 9.0 0.00 0.00 0.00 46 1013.2
20260508151335 63 186 7.0 8.0 0.00 0.00 0.00 46 1013.3
20260508150831 63 158 5.0 8.0 0.00 0.00 0.00 45 1013.4
20260508150328 64 183 7.0 7.0 0.00 0.00 0.00 48 1013.3
20260508145825 63 159 6.0 6.0 0.00 0.00 0.00 51 1013.2
20260508145321 62 197 6.0 8.0 0.00 0.00 0.00 47 1013.5
20260508144818 62 169 5.0 7.0 0.00 0.00 0.00 56 1013.5
20260508144316 61 146 5.0 6.0 0.00 0.00 0.00 53 1013.5
20260508143813 61 194 6.0 8.0 0.00 0.00 0.00 47 1013.7
20260508143310 61 182 5.0 11.0 0.00 0.00 0.00 49 1013.9
20260508142807 60 177 5.0 8.0 0.00 0.00 0.00 54 1013.5
20260508142306 60 158 5.0 6.0 0.00 0.00 0.00 55 1013.8
20260508141759 59 171 7.0 9.0 0.00 0.00 0.00 53 1013.8
20260508141257 59 168 6.0 7.0 0.00 0.00 0.00 56 1013.7
20260508140754 58 171 6.0 8.0 0.00 0.00 0.00 54 1013.7
20260508140251 57 164 5.0 9.0 0.00 0.00 0.00 56 1013.5
20260508135747 57 165 6.0 7.0 0.00 0.00 0.00 60 1013.7
20260508135243 56 157 6.0 8.0 0.00 0.00 0.00 58 1014.1
20260508134738 56 174 5.0 6.0 0.00 0.00 0.00 61 1013.7
20260508134236 55 169 5.0 6.0 0.00 0.00 0.00 60 1014.0
20260508133732 56 172 5.0 6.0 0.00 0.00 0.00 59 1013.9
20260508133230 55 163 5.0 5.0 0.00 0.00 0.00 60 1013.8
20260508132728 55 157 6.0 9.0 0.00 0.00 0.00 58 1013.8
20260508132225 55 160 5.0 7.0 0.00 0.00 0.00 61 1013.7
20260508131720 53 132 5.0 7.0 0.00 0.00 0.00 65 1013.8
20260508131217 53 157 5.0 8.0 0.00 0.00 0.00 65 1013.9
20260508130714 52 158 6.0 6.0 0.00 0.00 0.00 65 1013.9
20260508130212 51 156 6.0 7.0 0.00 0.00 0.00 64 1014.0
20260508125706 51 155 6.0 7.0 0.00 0.00 0.00 65 1014.0
20260508125204 50 145 6.0 7.0 0.00 0.00 0.00 65 1013.7
20260508124702 50 149 6.0 7.0 0.00 0.00 0.00 66 1013.7
20260508124159 50 168 7.0 8.0 0.00 0.00 0.00 67 1013.9
20260508123657 49 164 7.0 7.0 0.00 0.00 0.00 67 1013.8
20260508123155 49 147 6.0 6.0 0.00 0.00 0.00 68 1013.7
20260508122650 49 145 6.0 7.0 0.00 0.00 0.00 69 1013.9
20260508122147 48 150 6.0 7.0 0.00 0.00 0.00 69 1013.8
20260508121645 48 141 6.0 7.0 0.00 0.00 0.00 71 1013.7
20260508121143 47 144 6.0 7.0 0.00 0.00 0.00 72 1013.5
20260508120640 46 142 7.0 7.0 0.00 0.00 0.00 74 1013.3
20260508120139 45 147 6.0 8.0 0.00 0.00 0.00 77 1013.4
20260508115636 44 143 6.0 7.0 0.00 0.00 0.00 79 1013.7
20260508115132 43 144 6.0 8.0 0.00 0.00 0.00 79 1013.4
20260508114629 43 142 7.0 7.0 0.00 0.00 0.00 79 1013.3
20260508114125 43 148 7.0 7.0 0.00 0.00 0.00 79 1013.4
20260508113623 42 146 7.0 8.0 0.00 0.00 0.00 80 1013.4
20260508113121 42 149 7.0 7.0 0.00 0.00 0.00 81 1013.3
20260508112617 42 143 6.0 7.0 0.00 0.00 0.00 82 1013.4
20260508112114 41 155 6.0 7.0 0.00 0.00 0.00 82 1013.2
20260508111610 41 146 6.0 7.0 0.00 0.00 0.00 82 1013.1
20260508111108 41 149 6.0 7.0 0.00 0.00 0.00 82 1013.3
20260508110606 41 147 6.0 7.0 0.00 0.00 0.00 82 1013.1
20260508110101 41 149 6.0 7.0 0.00 0.00 0.00 81 1013.1
20260508105556 42 149 6.0 7.0 0.00 0.00 0.00 81 1013.1
20260508105054 41 149 6.0 7.0 0.00 0.00 0.00 81 1013.0
20260508104552 41 139 6.0 7.0 0.00 0.00 0.00 81 1013.0
20260508104047 41 133 7.0 7.0 0.00 0.00 0.00 80 1013.0
20260508103545 42 143 6.0 7.0 0.00 0.00 0.00 81 1013.2
20260508103042 42 141 6.0 7.0 0.00 0.00 0.00 81 1013.1
20260508102540 42 137 6.0 7.0 0.00 0.00 0.00 81 1013.0
20260508102037 42 142 6.0 8.0 0.00 0.00 0.00 80 1013.0
20260508101535 42 141 6.0 7.0 0.00 0.00 0.00 80 1013.2
20260508101032 42 136 6.0 7.0 0.00 0.00 0.00 80 1013.0
20260508100530 42 152 6.0 6.0 0.00 0.00 0.00 81 1013.0
20260508100026 42 146 6.0 6.0 0.00 0.00 0.00 81 1012.8
20260508095523 42 144 6.0 7.0 0.00 0.00 0.00 81 1013.1
20260508095020 42 139 6.0 7.0 0.00 0.00 0.00 80 1012.9
20260508094517 42 137 6.0 7.0 0.00 0.00 0.00 80 1012.9
20260508094014 42 144 6.0 7.0 0.00 0.00 0.00 81 1013.0
20260508093511 42 137 7.0 7.0 0.00 0.00 0.00 81 1012.9
20260508093009 42 138 7.0 8.0 0.00 0.00 0.00 79 1012.9
20260508092506 42 138 6.0 8.0 0.00 0.00 0.00 79 1012.8
20260508092005 42 139 8.0 8.0 0.00 0.00 0.00 79 1012.8
20260508091501 42 131 7.0 7.0 0.00 0.00 0.00 80 1012.8
20260508090958 42 129 6.0 7.0 0.00 0.00 0.00 79 1013.0
20260508090457 42 133 7.0 7.0 0.00 0.00 0.00 80 1012.8
20260508085953 42 133 7.0 7.0 0.00 0.00 0.00 80 1012.7
20260508085449 42 135 7.0 7.0 0.00 0.00 0.00 80 1012.9
20260508084947 42 130 6.0 7.0 0.00 0.00 0.00 80 1013.0
20260508084443 42 130 6.0 7.0 0.00 0.00 0.00 79 1012.8
20260508083941 42 134 7.0 7.0 0.00 0.00 0.00 81 1012.9
20260508083438 42 129 6.0 7.0 0.00 0.00 0.00 81 1012.7
20260508082933 42 125 7.0 7.0 0.00 0.00 0.00 80 1012.8
20260508082430 42 120 6.0 7.0 0.00 0.00 0.00 79 1012.8
20260508081928 43 132 6.0 8.0 0.00 0.00 0.00 78 1012.7
20260508081424 43 132 7.0 7.0 0.00 0.00 0.00 77 1012.8
20260508080920 43 137 6.0 7.0 0.00 0.00 0.00 77 1012.6
20260508080413 43 137 7.0 8.0 0.00 0.00 0.00 77 1012.8
20260508075909 43 138 7.0 8.0 0.00 0.00 0.00 76 1012.8
20260508075407 43 128 6.0 7.0 0.00 0.00 0.00 77 1012.8
20260508074905 43 129 5.0 7.0 0.00 0.00 0.00 75 1012.7
20260508074401 43 136 6.0 6.0 0.00 0.00 0.00 75 1012.4
20260508073858 44 139 6.0 7.0 0.00 0.00 0.00 76 1012.7
20260508073356 44 138 7.0 7.0 0.00 0.00 0.00 76 1012.7
20260508072852 44 139 7.0 8.0 0.00 0.00 0.00 75 1012.7
20260508072349 44 140 6.0 8.0 0.00 0.00 0.00 75 1012.6
20260508071846 44 137 6.0 8.0 0.00 0.00 0.00 75 1012.8
20260508071345 44 143 6.0 7.0 0.00 0.00 0.00 76 1012.9
20260508070842 44 137 8.0 8.0 0.00 0.00 0.00 75 1012.8
20260508070340 44 142 6.0 8.0 0.00 0.00 0.00 75 1013.0
20260508065837 44 139 6.0 7.0 0.00 0.00 0.00 75 1013.2
20260508065335 44 135 5.0 7.0 0.00 0.00 0.00 75 1013.1
20260508064833 44 130 6.0 7.0 0.00 0.00 0.00 76 1013.2
20260508064330 44 121 5.0 6.0 0.00 0.00 0.00 76 1013.2
20260508063828 44 119 6.0 7.0 0.00 0.00 0.00 76 1013.3
20260508063326 45 129 6.0 7.0 0.00 0.00 0.00 74 1013.4
20260508062822 45 138 7.0 7.0 0.00 0.00 0.00 74 1013.3
20260508062320 44 138 6.0 7.0 0.00 0.00 0.00 75 1013.3
20260508061816 44 128 6.0 6.0 0.00 0.00 0.00 76 1013.4
20260508061314 44 123 5.0 6.0 0.00 0.00 0.00 76 1013.5
20260508060810 45 122 5.0 5.0 0.00 0.00 0.00 75 1013.7
20260508060308 45 131 5.0 7.0 0.00 0.00 0.00 73 1013.7
20260508055803 45 138 7.0 8.0 0.00 0.00 0.00 73 1013.9
20260508055301 45 145 6.0 7.0 0.00 0.00 0.00 73 1013.8
20260508054757 45 137 7.0 7.0 0.00 0.00 0.00 72 1013.5
20260508054255 46 142 6.0 7.0 0.00 0.00 0.00 72 1013.8
20260508053751 46 134 6.0 7.0 0.00 0.00 0.00 71 1013.7
20260508053249 46 141 7.0 7.0 0.00 0.00 0.00 71 1013.4
20260508052746 45 145 7.0 7.0 0.00 0.00 0.00 71 1013.3
20260508052243 45 149 6.0 6.0 0.00 0.00 0.00 73 1013.8
20260508051739 45 146 6.0 7.0 0.00 0.00 0.00 73 1013.8
20260508051235 45 136 5.0 7.0 0.00 0.00 0.00 72 1013.7
20260508050732 45 133 6.0 7.0 0.00 0.00 0.00 72 1013.5
20260508050230 45 143 5.0 6.0 0.00 0.00 0.00 72 1013.3
20260508045724 46 138 6.0 7.0 0.00 0.00 0.00 72 1013.5
20260508045222 46 138 7.0 7.0 0.00 0.00 0.00 71 1013.4
20260508044720 46 148 5.0 6.0 0.00 0.00 0.00 70 1013.4
20260508044216 46 143 6.0 7.0 0.00 0.00 0.00 70 1013.5
20260508043712 46 141 6.0 7.0 0.00 0.00 0.00 70 1013.7
20260508043210 46 146 6.0 7.0 0.00 0.00 0.00 70 1013.3
20260508042706 46 143 7.0 7.0 0.00 0.00 0.00 70 1013.4
20260508042204 46 146 6.0 7.0 0.00 0.00 0.00 69 1013.3
20260508041700 46 152 6.0 7.0 0.00 0.00 0.00 70 1013.4
20260508041157 47 149 6.0 7.0 0.00 0.00 0.00 69 1013.5
20260508040653 47 140 7.0 7.0 0.00 0.00 0.00 68 1013.3
20260508040151 47 142 6.0 7.0 0.00 0.00 0.00 68 1013.7
20260508035648 47 141 6.0 7.0 0.00 0.00 0.00 67 1013.3
20260508035146 47 142 6.0 7.0 0.00 0.00 0.00 66 1013.4
20260508034642 47 133 6.0 7.0 0.00 0.00 0.00 65 1013.3
20260508034139 47 132 7.0 8.0 0.00 0.00 0.00 67 1013.3
20260508033636 47 140 6.0 7.0 0.00 0.00 0.00 67 1013.7
20260508033135 47 141 6.0 7.0 0.00 0.00 0.00 67 1013.5
20260508032631 47 144 6.0 6.0 0.00 0.00 0.00 68 1013.3
20260508032128 47 140 6.0 7.0 0.00 0.00 0.00 69 1013.4
20260508031625 47 137 6.0 7.0 0.00 0.00 0.00 69 1013.4
20260508031121 48 139 6.0 7.0 0.00 0.00 0.00 69 1013.3
20260508030618 48 138 7.0 7.0 0.00 0.00 0.00 65 1013.4
20260508030116 49 139 6.0 7.0 0.00 0.00 0.00 63 1013.2
20260508025612 49 134 6.0 7.0 0.00 0.00 0.00 61 1013.5
20260508025109 49 137 6.0 6.0 0.00 0.00 0.00 59 1013.3
20260508024605 49 137 6.0 7.0 0.00 0.00 0.00 58 1013.3
20260508024102 49 133 6.0 7.0 0.00 0.00 0.00 58 1013.4
20260508023558 49 139 7.0 7.0 0.00 0.00 0.00 58 1013.3
20260508023056 49 140 7.0 7.0 0.00 0.00 0.00 58 1013.1
20260508022551 49 131 6.0 7.0 0.00 0.00 0.00 60 1013.1
20260508022049 50 133 6.0 6.0 0.00 0.00 0.00 59 1013.0
20260508021544 50 136 7.0 7.0 0.00 0.00 0.00 61 1013.2
20260508021040 50 130 5.0 6.0 0.00 0.00 0.00 56 1013.3
20260508020538 51 127 5.0 6.0 0.00 0.00 0.00 56 1013.1
20260508020036 51 130 6.0 7.0 0.00 0.00 0.00 54 1013.2
20260508015533 51 130 5.0 6.0 0.00 0.00 0.00 54 1013.2
20260508015030 51 130 5.0 6.0 0.00 0.00 0.00 53 1013.1
20260508014526 51 130 5.0 5.0 0.00 0.00 0.00 52 1013.2
20260508014022 51 128 5.0 6.0 0.00 0.00 0.00 51 1012.9
20260508013518 52 131 5.0 5.0 0.00 0.00 0.00 49 1013.1
20260508013016 52 135 5.0 5.0 0.00 0.00 0.00 48 1013.2
20260508012513 53 134 5.0 6.0 0.00 0.00 0.00 47 1012.9
20260508012010 53 127 5.0 5.0 0.00 0.00 0.00 46 1012.9
20260508011509 53 112 4.0 5.0 0.00 0.00 0.00 46 1012.9
20260508011005 52 123 5.0 6.0 0.00 0.00 0.00 47 1013.0
20260508010457 52 129 5.0 5.0 0.00 0.00 0.00 47 1012.9
20260508005954 52 124 5.0 5.0 0.00 0.00 0.00 48 1012.8
20260508005450 53 129 5.0 5.0 0.00 0.00 0.00 47 1012.9
20260508004947 52 128 5.0 6.0 0.00 0.00 0.00 47 1012.7
20260508004443 53 132 5.0 5.0 0.00 0.00 0.00 47 1013.0
20260508003940 53 125 5.0 6.0 0.00 0.00 0.00 50 1012.8
20260508003437 53 134 5.0 5.0 0.00 0.00 0.00 47 1012.9
20260508002934 53 127 5.0 6.0 0.00 0.00 0.00 49 1012.6
20260508002431 54 124 5.0 6.0 0.00 0.00 0.00 52 1012.5
20260508001926 55 115 5.0 6.0 0.00 0.00 0.00 52 1012.5
20260508001423 55 119 6.0 6.0 0.00 0.00 0.00 49 1012.6
20260508000920 55 119 5.0 5.0 0.00 0.00 0.00 49 1012.4
20260508000415 56 127 7.0 7.0 0.00 0.00 0.00 47 1012.7
20260507235913 56 130 4.0 5.0 0.00 0.00 0.00 44 1012.6
20260507235410 57 132 5.0 5.0 0.00 0.00 0.00 40 1012.6
20260507234907 57 137 5.0 5.0 0.00 0.00 0.00 40 1012.3
20260507234403 57 142 4.0 5.0 0.00 0.00 0.00 40 1012.4
20260507233900 57 146 4.0 7.0 0.00 0.00 0.00 40 1012.4
20260507233357 58 139 5.0 5.0 0.00 0.00 0.00 42 1012.4
20260507232855 58 135 5.0 5.0 0.00 0.00 0.00 41 1012.5
20260507232351 58 140 4.0 6.0 0.00 0.00 0.00 42 1012.4
20260507231849 58 132 5.0 5.0 0.00 0.00 0.00 47 1012.4
20260507231345 59 152 4.0 5.0 0.00 0.00 0.00 43 1012.3